Regional Weather Roundup
Issued by NWS

Home | Current Version | Previous Version | Graphics & Text | Print | Product List | Glossary On
Versions: 1 2 3 4 5 6 7 8 9 10 11 12 13 14 15 16 17 18 19 20 21 22 23 24 25 26 27 28 29 30 31 32 33 34 35 36 37 38 39 40 41 42 43 44 45 46 47 48 49 50
000
ASUS43 KFSD 210510
RWRSD

WEATHER ROUNDUP FOR SOUTH DAKOTA
NATIONAL WEATHER SERVICE SIOUX FALLS SD
1200 AM CDT THU AUG 21 2014

NOTE: "FAIR" INDICATES FEW OR NO CLOUDS BELOW 12,000 FEET WITH NO
SIGNIFICANT WEATHER AND/OR OBSTRUCTIONS TO VISIBILITY.


SDZ001>005-009-010-012>017-210600-
NORTHWEST AND NORTH CENTRAL SOUTH DAKOTA

CITY           SKY/WX    TMP DP  RH WIND       PRES   REMARKS
BUFFALO          N/A     62  58  86 W3        29.78R
FAITH            N/A     64  62  93 N9        29.79R
MOBRIDGE       CLOUDY    67  65  93 E12       29.69F
$$

SDZ012>016-024>037-041>051-057-063-072>074-210600-
SOUTHWEST AND SOUTH CENTRAL SOUTH DAKOTA

CITY           SKY/WX    TMP DP  RH WIND       PRES   REMARKS
RAPID CTY ARPT CLEAR     67  58  72 N13       29.82S
PIERRE         PTCLDY    72  71  97 E6        29.67R
CUSTER         PTCLDY    64  48  56 N6        29.97R
ELLSWORTH AFB  CLEAR     69  58  69 N14       29.83S
PHILIP         CLEAR     68  62  81 NW7       29.74R
PINE RIDGE     CLEAR     66  56  70 E5        29.82S
WINNER         FAIR      79  72  79 S12       29.68F
$$

SDZ004>011-016>023-039-040-210600-
NORTHEAST SOUTH DAKOTA

CITY           SKY/WX    TMP DP  RH WIND       PRES   REMARKS
ABERDEEN       CLOUDY    72  70  93 NW6       29.73R
WATERTOWN      CLOUDY    72  68  87 S10       29.75F
SISSETON         N/A     74  70  87 SE7       29.74F
$$

SDZ017-020-022-023-036>040-048>070-210600-
SOUTHEAST SOUTH DAKOTA

CITY           SKY/WX    TMP DP  RH WIND       PRES   REMARKS
SIOUX FALLS    MOCLDY    76  72  87 S8        29.74F
HURON          PTCLDY    75  70  84 SE8       29.69S
CHAMBERLAIN    CLEAR     73  72  96 E6        29.68S
MITCHELL       CLEAR     75  73  93 SE7       29.70R
YANKTON        PTCLDY    77  73  88 SE9       29.70F
$$

ABBREVIATIONS USED IN REMARKS
   TC - TEMPERATURE IN CELSIUS
  WCI - WIND CHILL INDEX
   HX - HEAT INDEX
  VSB - VISIBILITY




USA.gov is the U.S. government's official web portal to all federal, state and local government web resources and services.